Retour au catalogue

ATLAS 2AS CENTAUR R/B

ActifHEO
NORAD 28155·ROCKET BODY·🇺🇸 United States

Lancé Feb 5, 2004 depuis Cape Canaveral Space Force Station

Loading…

Prochains Passages (prochaines 24 heures)

TLE

FraisSource: Space-Track

Époque: Sep 14, 2026, 20:08 UTC

1 28155U 04003B   26257.83941672  .00002187  00000-0  11006-2 0  9998
2 28155  12.4871 185.1502 6189194  89.8327 336.1468  3.71473054251286

Suivez ATLAS 2AS CENTAUR R/B en temps réel avec AllMySat

Download on the App Store